Location: Cartignies
(50.0929°N, 3.8447°E)
Time: 14:38:35
(UTC+00:00)

Cosmos 1470 Rocket - Pass Details

Date: 12 January 2026
Orbit: 598 x 626 km, 82.5° (Epoch: 15 February)

Event Time Altitude Azimuth Distance (km) Brightness Sun altitude
Rises 17:38:23 0° 351° (N) 2,859 6.9 -14.1°
Reaches altitude 10° 17:40:37 10° 354° (N) 1,953 6.0 -14.4°
Maximum altitude 17:44:55 72° 79° (ENE) 639 3.4 -15.1°
Drops below altitude 10° 17:49:13 10° 164° (SSE) 1,949 6.1 -15.8°
Sets 17:51:26 0° 166° (SSE) 2,852 7.0 -16.1°
